| time (UTC) | temp C | wind direction | speed KPH | gust KPH | rain 1hr cm | rain 24hr cm | rain mn cm | humidity % | barometer mb |
| 20260505211004 | 18 | 187 | 3.2 | 6.4 | 0.00 | 0.00 | 0.00 | 30 | 1010.5 |
| 20260505210004 | 18 | 195 | 4.8 | 8.0 | 0.00 | 0.00 | 0.00 | 30 | 1010.5 |
| 20260505205003 | 19 | 202 | 4.8 | 12.9 | 0.00 | 0.00 | 0.00 | 28 | 1010.5 |
| 20260505204004 | 19 | 200 | 8.0 | 16.1 | 0.00 | 0.00 | 0.00 | 28 | 1010.6 |
| 20260505203004 | 20 | 195 | 4.8 | 14.5 | 0.00 | 0.00 | 0.00 | 27 | 1010.6 |
| 20260505201004 | 20 | 188 | 8.0 | 12.9 | 0.00 | 0.00 | 0.00 | 25 | 1010.6 |
| 20260505200004 | 20 | 199 | 9.7 | 17.7 | 0.00 | 0.00 | 0.00 | 24 | 1010.5 |
| 20260505194004 | 21 | 195 | 8.0 | 17.7 | 0.00 | 0.00 | 0.00 | 22 | 1010.3 |
| 20260505193004 | 21 | 177 | 11.3 | 17.7 | 0.00 | 0.00 | 0.00 | 22 | 1010.2 |
| 20260505192003 | 21 | 190 | 8.0 | 16.1 | 0.00 | 0.00 | 0.00 | 22 | 1010.2 |
| 20260505191004 | 21 | 183 | 11.3 | 19.3 | 0.00 | 0.00 | 0.00 | 22 | 1010.3 |
| 20260505185003 | 21 | 197 | 6.4 | 19.3 | 0.00 | 0.00 | 0.00 | 21 | 1010.2 |
| 20260505183005 | 22 | 203 | 6.4 | 12.9 | 0.00 | 0.00 | 0.00 | 19 | 1010.0 |
| 20260505182004 | 22 | 174 | 6.4 | 16.1 | 0.00 | 0.00 | 0.00 | 19 | 1010.2 |
| 20260505180004 | 23 | 181 | 8.0 | 14.5 | 0.00 | 0.00 | 0.00 | 20 | 1009.9 |
| 20260505175003 | 23 | 187 | 6.4 | 17.7 | 0.00 | 0.00 | 0.00 | 18 | 1010.1 |
| 20260505174004 | 24 | 178 | 6.4 | 17.7 | 0.00 | 0.00 | 0.00 | 16 | 1010.2 |
| 20260505152004 | 30 | 187 | 17.7 | 24.1 | 0.00 | 0.00 | 0.00 | 10 | 1010.0 |
| 20260505151003 | 31 | 176 | 12.9 | 17.7 | 0.00 | 0.00 | 0.00 | 10 | 1010.2 |
| 20260505125004 | 33 | 209 | 17.7 | 27.4 | 0.00 | 0.00 | 0.00 | 12 | 1011.5 |
| 20260505123004 | 33 | 201 | 14.5 | 22.5 | 0.00 | 0.00 | 0.00 | 12 | 1011.9 |
| 20260505122003 | 32 | 186 | 14.5 | 35.4 | 0.00 | 0.00 | 0.00 | 10 | 1012.0 |
| 20260505121004 | 32 | 178 | 11.3 | 19.3 | 0.00 | 0.00 | 0.00 | 10 | 1012.1 |
| 20260505115003 | 31 | 204 | 20.9 | 29.0 | 0.00 | 0.00 | 0.00 | 10 | 1012.3 |
| 20260505114003 | 32 | 195 | 16.1 | 27.4 | 0.00 | 0.00 | 0.00 | 10 | 1012.3 |
| 20260505113004 | 31 | 175 | 16.1 | 22.5 | 0.00 | 0.00 | 0.00 | 10 | 1012.3 |
| 20260505112003 | 30 | 204 | 12.9 | 27.4 | 0.00 | 0.00 | 0.00 | 10 | 1012.5 |
| 20260505102004 | 30 | 197 | 14.5 | 20.9 | 0.00 | 0.00 | 0.00 | 10 | 1013.4 |
| 20260505101004 | 30 | 199 | 12.9 | 19.3 | 0.00 | 0.00 | 0.00 | 10 | 1013.4 |
| 20260505100003 | 30 | 159 | 6.4 | 17.7 | 0.00 | 0.00 | 0.00 | 10 | 1013.5 |
| 20260505095003 | 30 | 152 | 12.9 | 17.7 | 0.00 | 0.00 | 0.00 | 10 | 1013.7 |
| 20260505094004 | 30 | 173 | 8.0 | 17.7 | 0.00 | 0.00 | 0.00 | 10 | 1013.7 |
| 20260505093003 | 29 | 194 | 1.6 | 14.5 | 0.00 | 0.00 | 0.00 | 11 | 1013.8 |
| 20260505091003 | 28 | 193 | 3.2 | 17.7 | 0.00 | 0.00 | 0.00 | 12 | 1014.0 |
| 20260505090004 | 28 | 218 | 12.9 | 17.7 | 0.00 | 0.00 | 0.00 | 12 | 1014.1 |
| 20260505085004 | 28 | 201 | 6.4 | 16.1 | 0.00 | 0.00 | 0.00 | 12 | 1014.1 |
| 20260505084004 | 27 | 194 | 3.2 | 17.7 | 0.00 | 0.00 | 0.00 | 10 | 1014.5 |
| 20260505083005 | 27 | 224 | 4.8 | 14.5 | 0.00 | 0.00 | 0.00 | 12 | 1014.6 |
| 20260505082005 | 27 | 215 | 6.4 | 17.7 | 0.00 | 0.00 | 0.00 | 10 | 1014.4 |
| 20260505081005 | 27 | 194 | 3.2 | 14.5 | 0.00 | 0.00 | 0.00 | 12 | 1014.7 |